Location: Black Swamp Observatory
(41.3920°N, 84.1250°W)
Time: 21:38:30
(UTC-05:00)

Vanguard 2 - All Passes

Search period start: 27 January 2022 00:00
Search period end: 06 February 2022 00:00
Orbit: 554 x 2935 km, 32.9° (Epoch: 27 January)

Date Brightness Start Highest point End Pass type
(mag) Time Alt. Az. Time Alt. Az. Time Alt. Az.
27 Jan - 00:36:12 10° W 00:48:31 50° SSW 01:05:04 10° SE night (unlit)
27 Jan - 02:47:07 10° W 02:59:31 29° SW 03:13:23 10° SSE visible
27 Jan - 18:32:56 10° S 18:37:33 19° SE 18:43:44 10° E visible
27 Jan - 20:37:43 10° SW 20:45:19 47° SSE 20:57:40 10° E visible
27 Jan - 22:45:05 10° WSW 22:55:09 57° S 23:10:44 10° ESE visible
28 Jan - 00:53:58 10° W 01:06:05 44° SSW 01:22:06 10° SE night (unlit)
28 Jan - 03:05:50 10° W 03:16:51 23° SW 03:28:56 10° S visible
28 Jan - 18:49:20 10° SSW 18:54:34 25° SE 19:02:09 10° E visible
28 Jan - 20:55:01 10° WSW 21:02:45 51° SSE 21:15:30 10° E visible
28 Jan - 23:02:38 10° W 23:12:46 54° S 23:28:17 10° ESE visible
29 Jan - 01:11:50 10° W 01:23:38 38° SSW 01:38:51 10° SE visible
29 Jan - 03:25:26 10° WSW 03:34:09 17° SW 03:43:32 10° S visible
29 Jan - 19:06:06 10° SSW 19:11:44 31° SSE 19:20:16 10° E visible
29 Jan - 21:12:24 10° WSW 21:20:16 54° S 21:33:16 10° ESE visible
29 Jan - 23:20:14 10° W 23:30:23 50° SSW 23:45:40 10° SE visible
30 Jan - 01:29:56 10° W 01:41:08 31° SSW 01:55:13 10° SSE visible
30 Jan - 03:47:43 10° WSW 03:51:28 11° SW 03:55:19 10° SSW visible
30 Jan - 17:20:52 10° SSE 17:21:56 10° SE 17:23:03 10° SE daylight
30 Jan - 19:23:08 10° SW 19:28:59 37° SSE 19:38:12 10° E visible
30 Jan - 21:29:50 10° WSW 21:37:49 54° S 21:50:58 10° ESE visible
30 Jan - 23:37:54 10° W 23:47:59 44° SSW 00:02:51 10° SE visible
31 Jan - 01:48:21 10° W 01:58:36 25° SSW 02:11:05 10° SSE visible
31 Jan - 17:35:43 10° S 17:38:56 16° SE 17:42:55 10° ESE daylight
31 Jan - 19:40:18 10° SW 19:46:20 43° SSE 19:56:02 10° E visible
31 Jan - 21:47:19 10° WSW 21:55:24 52° S 22:08:34 10° ESE visible
31 Jan - 23:55:41 10° W 00:05:35 38° SSW 00:19:45 10° SE visible
01 Feb - 02:07:24 10° WSW 02:16:03 19° SW 02:26:10 10° S night (unlit)
01 Feb - 17:52:03 10° SSW 17:56:01 21° SSE 18:01:22 10° ESE daylight
01 Feb - 19:57:36 10° WSW 20:03:45 46° S 20:13:48 10° E visible
01 Feb - 22:04:52 10° W 22:12:59 48° S 22:26:02 10° ESE visible
02 Feb - 00:13:38 10° W 00:23:09 32° SSW 00:36:19 10° SSE night (unlit)
02 Feb - 02:27:56 10° WSW 02:33:31 13° SW 02:39:38 10° SSW night (unlit)
02 Feb - 18:08:50 10° SSW 18:13:12 27° SSE 18:19:26 10° E visible
02 Feb - 20:15:00 10° WSW 20:21:14 48° S 20:31:31 10° ESE visible
02 Feb - 22:22:29 10° W 22:30:34 43° SSW 22:43:19 10° SE visible
03 Feb - 00:31:52 10° WSW 00:40:42 25° SSW 00:52:25 10° SSE night (unlit)
03 Feb - 18:25:53 10° SW 18:30:30 32° SSE 18:37:19 10° E visible
03 Feb - 20:32:25 10° WSW 20:38:46 47° S 20:49:08 10° ESE visible
03 Feb - 22:40:11 10° W 22:48:10 37° SSW 23:00:21 10° SE visible
04 Feb - 00:50:37 10° WSW 00:58:16 19° SSW 01:07:50 10° S night (unlit)
04 Feb - 16:38:35 10° S 16:40:37 13° SSE 16:42:53 10° ESE daylight
04 Feb - 18:43:04 10° SW 18:47:51 37° SSE 18:55:06 10° ESE visible
04 Feb - 20:49:55 10° WSW 20:56:19 44° S 21:06:39 10° ESE visible
04 Feb - 22:58:03 10° WSW 23:05:46 31° SSW 23:17:05 10° SSE visible
05 Feb - 01:10:31 10° WSW 01:15:50 13° SSW 01:21:57 10° S night (unlit)
05 Feb - 16:54:47 10° SSW 16:57:47 18° SSE 17:01:26 10° ESE daylight
05 Feb - 19:00:24 10° WSW 19:05:17 39° S 19:12:48 10° ESE visible
05 Feb - 21:07:30 10° WSW 21:13:52 39° S 21:24:00 10° SE visible
05 Feb - 23:16:10 10° WSW 23:23:22 24° SSW 23:33:22 10° SSE visible
